GW0525 Weather Reports


Display with metric or nautical units.
time (UTC)temp
F
wind
direction
speed
MPH
gust
MPH
rain 1hr
in
rain 24hr
in
rain mn
in
humidity
%
barometer
mb
20260508003059 63 327 18.0 25.0 0.00 0.00 0.00 29 1008.5
20260508001600 62 333 14.0 21.0 0.00 0.00 0.00 27 1008.6
20260507234603 63 285 19.0 33.0 0.00 0.00 0.00 27 1008.5
20260507233116 64 325 16.0 30.0 0.00 0.00 0.00 25 1008.5
20260507231605 64 318 14.0 19.0 0.00 0.00 0.00 24 1008.2
20260507230059 64 313 13.0 21.0 0.00 0.00 0.00 24 1008.3
20260507224604 63 339 13.0 23.0 0.00 0.00 0.00 25 1008.1
20260507223116 62 340 17.0 22.0 0.00 0.00 0.00 25 1008.2
20260507221559 63 323 14.0 23.0 0.00 0.00 0.00 24 1008.3
20260507220059 63 322 8.0 21.0 0.00 0.00 0.00 23 1008.2
20260507214603 64 320 15.0 30.0 0.00 0.00 0.00 23 1008.5
20260507213101 63 350 13.0 25.0 0.00 0.00 0.00 23 1008.7
20260507211604 62 314 13.0 18.0 0.00 0.00 0.00 23 1008.9
20260507210115 62 338 10.0 18.0 0.00 0.00 0.00 22 1009.1
20260507204600 62 323 4.0 14.0 0.00 0.00 0.00 23 1009.3
20260507203100 62 304 13.0 23.0 0.00 0.00 0.00 21 1009.4
20260507201600 62 225 9.0 22.0 0.00 0.00 0.00 21 1009.3
20260507200106 63 255 14.0 21.0 0.00 0.00 0.00 20 1009.3
20260507194600 63 294 7.0 20.0 0.00 0.00 0.00 20 1009.3
20260507193057 62 304 4.0 18.0 0.00 0.00 0.00 21 1009.3
20260507191603 62 11 5.0 11.0 0.00 0.00 0.00 21 1009.4
20260507190107 61 25 10.0 17.0 0.00 0.00 0.00 22 1009.5
20260507184558 61 329 13.0 23.0 0.00 0.00 0.00 23 1009.6
20260507183116 60 331 1.0 8.0 0.00 0.00 0.00 22 1009.7
20260507181600 60 302 3.0 13.0 0.00 0.00 0.00 23 1009.9
20260507180105 59 259 7.0 10.0 0.00 0.00 0.00 22 1009.9
20260507174605 58 0 0.0 11.0 0.00 0.00 0.00 23 1010.0
20260507173113 58 285 6.0 14.0 0.00 0.00 0.00 23 1010.1
20260507171557 57 247 5.0 11.0 0.00 0.00 0.00 23 1010.1
20260507170100 57 232 6.0 12.0 0.00 0.00 0.00 23 1010.2
20260507164630 57 271 4.0 14.0 0.00 0.00 0.00 23 1010.3
20260507163059 56 271 4.0 9.0 0.00 0.00 0.00 24 1010.4
20260507161604 56 136 2.0 9.0 0.00 0.00 0.00 22 1010.4
20260507160058 55 0 4.0 10.0 0.00 0.00 0.00 22 1010.5
20260507154601 54 160 5.0 9.0 0.00 0.00 0.00 23 1010.6
20260507153059 53 215 6.0 10.0 0.00 0.00 0.00 24 1010.6
20260507151557 52 208 6.0 10.0 0.00 0.00 0.00 26 1010.7
20260507150059 51 191 4.0 9.0 0.00 0.00 0.00 27 1010.7
20260507144601 49 204 3.0 11.0 0.00 0.00 0.00 28 1010.4
20260507143119 49 172 2.0 5.0 0.00 0.00 0.00 31 1010.4
20260507141604 47 0 0.0 1.0 0.00 0.00 0.00 33 1010.5
20260507140057 47 0 0.0 0.0 0.00 0.00 0.00 32 1010.6
20260507134558 46 0 0.0 1.0 0.00 0.00 0.00 33 1010.5
20260507133100 44 0 0.0 1.0 0.00 0.00 0.00 35 1010.4
20260507131605 42 0 0.0 0.0 0.00 0.00 0.00 40 1010.3
20260507130057 40 0 0.0 0.0 0.00 0.00 0.00 40 1010.2
20260507124604 38 0 0.0 0.0 0.00 0.00 0.00 43 1010.1
20260507123100 37 0 0.0 1.0 0.00 0.00 0.00 42 1010.1
20260507121557 37 0 0.0 1.0 0.00 0.00 0.00 41 1010.1
20260507120059 37 0 0.0 0.0 0.00 0.00 0.00 41 1009.9
20260507114610 37 0 0.0 1.0 0.00 0.00 0.00 42 1009.9
20260507113130 37 0 0.0 0.0 0.00 0.00 0.00 41 1009.9
20260507111600 36 220 1.0 2.0 0.00 0.00 0.00 42 1009.9
20260507104600 37 244 0.0 2.0 0.00 0.00 0.00 40 1009.9
20260507103101 38 0 0.0 1.0 0.00 0.00 0.00 39 1009.8
20260507101600 38 0 0.0 0.0 0.00 0.00 0.00 39 1009.9
20260507100121 37 0 0.0 0.0 0.00 0.00 0.00 40 1009.9
20260507094610 37 0 0.0 0.0 0.00 0.00 0.00 40 1009.9
20260507093100 37 0 0.0 0.0 0.00 0.00 0.00 39 1009.6
20260507091635 37 0 0.0 0.0 0.00 0.00 0.00 39 1009.7
20260507084611 39 0 0.0 1.0 0.00 0.00 0.00 37 1009.8
20260507083100 38 0 0.0 0.0 0.00 0.00 0.00 39 1009.8
20260507081602 39 0 0.0 1.0 0.00 0.00 0.00 37 1009.8
20260507080105 39 0 3.0 7.0 0.00 0.00 0.00 38 1009.9
20260507074603 39 233 5.0 6.0 0.00 0.00 0.00 37 1009.9
20260507073104 38 244 6.0 8.0 0.00 0.00 0.00 37 1010.0
20260507071601 39 238 4.0 4.0 0.00 0.00 0.00 36 1009.9
20260507070107 39 244 3.0 5.0 0.00 0.00 0.00 35 1009.8
20260507064601 40 196 5.0 7.0 0.00 0.00 0.00 34 1009.7
20260507063102 38 232 4.0 5.0 0.00 0.00 0.00 36 1009.7
20260507061601 39 235 3.0 4.0 0.00 0.00 0.00 36 1009.6
20260507054601 40 233 4.0 4.0 0.00 0.00 0.00 35 1009.7
20260507053101 39 234 2.0 3.0 0.00 0.00 0.00 38 1009.8
20260507051603 37 232 2.0 2.0 0.00 0.00 0.00 40 1010.0
20260507050100 39 0 0.0 4.0 0.00 0.00 0.00 37 1009.9
20260507044615 41 37 1.0 2.0 0.00 0.00 0.00 33 1010.0
20260507043127 42 30 0.0 1.0 0.00 0.00 0.00 33 1010.2
20260507041604 42 0 0.0 0.0 0.00 0.00 0.00 32 1010.3
20260507040100 42 0 0.0 0.0 0.00 0.00 0.00 32 1010.4
20260507034601 43 0 0.0 3.0 0.00 0.00 0.00 31 1010.4
20260507033101 43 27 2.0 4.0 0.00 0.00 0.00 31 1010.4
20260507031559 43 333 4.0 8.0 0.00 0.00 0.00 31 1010.5
20260507030101 43 344 4.0 7.0 0.00 0.00 0.00 32 1010.6
20260507024600 44 26 5.0 7.0 0.00 0.00 0.00 31 1010.6
20260507023110 44 340 4.0 7.0 0.00 0.00 0.00 31 1010.6
20260507021600 47 24 4.0 6.0 0.00 0.00 0.00 28 1010.6
20260507020105 48 24 6.0 9.0 0.00 0.00 0.00 27 1010.6
20260507014602 49 345 7.0 12.0 0.00 0.00 0.00 27 1010.7
20260507013100 50 334 8.0 12.0 0.00 0.00 0.00 25 1010.9
20260507011601 52 9 12.0 15.0 0.00 0.00 0.00 24 1010.6
20260507010058 52 40 12.0 16.0 0.00 0.00 0.00 23 1010.8
20260507004607 53 335 14.0 19.0 0.00 0.00 0.00 23 1010.9